Location: Seven Kings
(51.5667°N, 0.1000°E)
Time: 02:53:18
(UTC+00:00)

YAOGAN 1 - Pass Details

Date: 29 October 2020
Orbit: 618 x 620 km, 97.9° (Epoch: 24 November)

Event Time Altitude Azimuth Distance (km) Brightness Sun altitude
Rises 17:17:03 0° 126° (SE) 2,892 5.6 -6.7°
Reaches altitude 10° 17:19:36 10° 111° (ESE) 1,990 4.7 -7.1°
Maximum altitude 17:22:55 22° 61° (ENE) 1,365 3.8 -7.6°
Drops below altitude 10° 17:26:16 10° 10° (N) 2,000 5.0 -8.1°
Sets 17:28:50 0° 356° (N) 2,911 5.9 -8.5°
